This is the latest recevied weather packets stored in our database for station/object OE-11073. If no packets are shown the sender has not sent any weather packets the latest 10 day(s).
| Time | Temp. | Humidity | Pressure | Rain* | Wind** | Luminosity | Snow |
|---|---|---|---|---|---|---|---|
| 1787923510 | 31.11° C | 31% | - | 0 mm | - | 260 W/m² | - |
| 1787922681 | 31.11° C | 31% | - | 0 mm | - | 383 W/m² | - |
| 1787922309 | 31.67° C | 31% | - | 0 mm | - | 344 W/m² | - |
| 1787921710 | 32.22° C | 28% | - | 0 mm | - | 398 W/m² | - |
| 1787920882 | 32.78° C | 30% | - | 0 mm | - | 589 W/m² | - |
| 1787920510 | 32.22° C | 28% | - | 0 mm | - | 627 W/m² | - |
| 1787919910 | 32.22° C | 28% | - | 0 mm | - | 643 W/m² | - |
| 1787919083 | 31.67° C | 27% | - | 0 mm | - | 451 W/m² | - |
| 1787918709 | 32.22° C | 25% | - | 0 mm | - | 551 W/m² | - |
| 1787918109 | 32.78° C | 26% | - | 0 mm | - | 803 W/m² | - |
| 1787917282 | 32.22° C | 28% | - | 0 mm | - | 834 W/m² | - |
| 1787916910 | 31.67° C | 28% | - | 0 mm | - | 811 W/m² | - |
| 1787916310 | 31.11° C | 30% | - | 0 mm | - | 650 W/m² | - |
| 1787915482 | 30° C | 36% | - | 0 mm | - | 788 W/m² | - |
| 1787915110 | 29.44° C | 40% | - | 0 mm | - | 773 W/m² | - |
| 1787914510 | 27.78° C | 51% | - | 0 mm | - | 658 W/m² | - |
| 1787913683 | 27.22° C | 52% | - | 0 mm | - | 689 W/m² | - |
| 1787913310 | 27.22° C | 55% | - | 0 mm | - | 803 W/m² | - |
| 1787912710 | 26.11° C | 56% | - | 0 mm | - | 757 W/m² | - |
| 1787911883 | 26.11° C | 60% | - | 0 mm | - | 765 W/m² | - |
| 1787911510 | 25.56° C | 59% | - | 0 mm | - | 742 W/m² | - |
| 1787910909 | 24.44° C | 61% | - | 0 mm | - | 727 W/m² | - |
| 1787910083 | 23.89° C | 63% | - | 0 mm | - | 666 W/m² | - |
| 1787909710 | 23.89° C | 61% | - | 0 mm | - | 643 W/m² | - |
| 1787909110 | 23.33° C | 68% | - | 0 mm | - | 620 W/m² | - |
* Rain latest hour (hover to see other rain measurements)
** Current wind speed in m/s (hover to see current wind gust speed)